Location: PSU-Greenbush Astrophysical Observatory
(37.5140°N, 94.9880°W)
Time: 14:28:34
(UTC-06:00)

deb Explorer IX - Pass Details

Date: 01 February 2020
Orbit: 549 x 1099 km, 38.8° (Epoch: 18 February)

Event Time Altitude Azimuth Distance (km) Brightness Sun altitude
Rises 21:03:33 0° 270° (W) 3,495 ? -39.8°
Reaches altitude 10° 21:05:59 10° 272° (W) 2,631 ? -40.2°
Enters shadow 21:09:00 31° 276° (W) 1,647 ? -40.8°
Maximum altitude 21:12:27 80° 359° (N) 1,036 - -41.5°
Drops below altitude 10° 21:19:40 10° 87° (E) 2,919 - -42.9°
Sets 21:22:30 0° 88° (E) 3,897 - -43.5°
